Stations météo

réclame
Mon MeteoGroup
Ueckermünde, Allemagne (10193): Température de l'air & dewpoint: 18.02.2018 22:00:00 - 24.02.2018 22:00:00 (CET)Ueckermünde, Allemagne (10193): Température de l'air 5cm & Température de l'air -5cm: 18.02.2018 22:00:00 - 24.02.2018 22:00:00 (CET)Ueckermünde, Allemagne (10193): Température de l'air -20cm & Température de l'air -100cm: 18.02.2018 22:00:00 - 24.02.2018 22:00:00 (CET)Ueckermünde, Allemagne (10193): Vitesse du vent & gusts: 18.02.2018 22:00:00 - 24.02.2018 22:00:00 (CET)Ueckermünde, Allemagne (10193): Direction du vent: 18.02.2018 22:00:00 - 24.02.2018 22:00:00 (CET)Ueckermünde, Allemagne (10193): reduced air pressure: 18.02.2018 22:00:00 - 24.02.2018 22:00:00 (CET)Ueckermünde, Allemagne (10193): visibility: 18.02.2018 22:00:00 - 24.02.2018 22:00:00 (CET)Ueckermünde, Allemagne (10193): Ensoleillement: 18.02.2018 22:00:00 - 24.02.2018 22:00:00 (CET)Ueckermünde, Allemagne (10193): Quantités de précipitations: 18.02.2018 22:00:00 - 24.02.2018 22:00:00 (CET)
Date & Time tt [°C] td [°C] tt 5cm [°C] tt -5cm [°C] tt -20cm [°C] tt -100cm [°C] ff [km/h] ff [knt] fx [km/h] fx [knt] dd ppp [hPa] vv [km] sd [min] rr [mm]
24.02.2018 22:00:00 -4,3 -10,4 -5,3 -0,9 0,9 3,5 9 5 20 11 E 1034,5 70 0 0,0
24.02.2018 21:00:00 -3,9 -9,6 -5,0 -0,3 0,9 3,5 10 5 25 14 E 1034,3 70 0 0,0
24.02.2018 20:00:00 -3,4 -9,2 -4,6 0,0 0,9 3,5 16 8 37 20 E 1034,2 70 0 0,0
24.02.2018 19:00:00 -3,0 -8,8 -3,9 0,0 0,9 3,5 23 12 39 21 ENE 1034,2 70 0 0,0
24.02.2018 18:00:00 -2,7 -8,5 -3,6 0,0 0,9 3,5 21 11 40 21 ENE 1033,9 70 17 0,0
24.02.2018 17:00:00 -2,1 -8,6 -2,1 0,0 0,9 3,5 23 13 37 20 ENE 1033,5 56 36 0,0
24.02.2018 16:00:00 -1,7 -8,8 -1,5 0,0 0,9 3,5 23 12 39 21 ENE 1033,4 28 53 0,0
24.02.2018 15:00:00 -1,4 -7,3 -0,1 -0,1 0,9 3,5 22 12 42 23 NE 1033,2 50 43 0,0
24.02.2018 14:00:00 -1,0 -7,4 0,7 -0,1 0,9 3,5 23 12 42 23 ENE 1032,9 18 60 0,0
24.02.2018 13:00:00 -1,2 -7,5 0,2 -0,1 0,9 3,5 25 13 42 23 ENE 1032,9 17 56 0,0
24.02.2018 12:00:00 -0,8 -6,6 -0,3 -0,2 0,9 3,5 19 11 34 18 ENE 1032,7 67 39 0,0
24.02.2018 11:00:00 -1,3 -4,1 0,4 -0,2 0,9 3,6 19 11 46 25 ENE 1032,6 35 35 0,0
24.02.2018 10:00:00 -0,6 -5,8 -0,1 -0,3 0,9 3,6 23 12 53 29 NE 1032,0 31 24 0,0
24.02.2018 09:00:00 -0,7 -8,0 -1,1 -0,5 0,9 3,6 31 17 49 26 NE 1031,5 55 18 0,0
24.02.2018 08:00:00 -1,2 -5,4 -1,5 -0,7 0,9 3,6 29 15 43 23 NE 1031,2 8 2 0,0
24.02.2018 07:00:00 -1,4 -5,7 -2,3 -0,6 0,9 3,6 24 13 45 24 NNE 1030,8 70 0 0,0
24.02.2018 06:00:00 -1,0 -7,8 -2,1 -0,5 0,9 3,6 25 13 44 24 NE 1030,3 70 0 0,0
24.02.2018 05:00:00 -0,8 -6,5 -2,1 -0,3 0,9 3,6 27 14 47 26 NE 1029,9 70 0 0,0
24.02.2018 04:00:00 -0,2 -3,9 -0,7 -0,2 0,9 3,6 21 11 42 23 NE 1029,2 70 0 0,0
24.02.2018 03:00:00 0,4 -2,3 -0,1 -0,1 0,9 3,6 18 10 32 17 NNE 1028,7 70 0 0,0
24.02.2018 02:00:00 0,3 -1,0 -0,1 -0,1 0,9 3,6 16 9 24 13 NNE 1028,7 69 0 0,1
24.02.2018 01:00:00 -0,2 -1,8 -0,7 -0,1 0,9 3,6 8 4 20 11 N 1028,5 52 0 0,0
24.02.2018 00:00:00 -2,3 -4,5 -2,3 -0,1 0,9 3,6 5 3 8 4 W 1028,5 26 0 0,0
23.02.2018 23:00:00 -3,1 -4,5 -2,8 0,0 0,9 3,6 4 2 6 3 WSW 1028,5 15 0 0,0
23.02.2018 22:00:00 -2,0 -4,5 -2,3 0,0 0,9 3,6 2 1 18 10 NNW 1028,5 25 0 0,0
23.02.2018 21:00:00 -1,7 -5,6 -3,4 0,0 0,9 3,6 13 7 17 9 NNE 1028,8 61 0 0,0
23.02.2018 20:00:00 -2,5 -5,1 -4,3 0,0 0,9 3,6 9 5 16 8 NNE 1028,5 30 0 0,0
23.02.2018 19:00:00 -2,5 -5,4 -4,0 0,0 0,9 3,6 9 5 21 12 NNE 1028,5 31 0 0,0
23.02.2018 18:00:00 -2,3 -5,8 -3,4 0,0 0,9 3,6 13 7 21 11 NE 1028,5 31 0 0,0
23.02.2018 17:00:00 -1,9 -6,4 -2,5 0,0 0,9 3,6 12 6 18 10 NNE 1028,3 33 43 0,0
23.02.2018 16:00:00 -1,3 -7,0 0,9 -0,1 0,9 3,6 9 5 18 10 ENE 1028,3 28 60 0,0
23.02.2018 15:00:00 -1,4 -7,0 0,7 -0,1 1,0 3,6 11 6 22 12 E 1028,6 23 60 0,0
23.02.2018 14:00:00 -2,2 -7,9 -0,3 -0,1 1,0 3,6 14 7 25 13 E 1028,9 19 60 0,0
23.02.2018 13:00:00 -2,8 -8,2 -0,3 -0,1 1,0 3,6 14 7 22 12 E 1029,2 13 60 0,0
23.02.2018 12:00:00 -3,5 -8,5 -1,6 -0,2 1,0 3,6 14 8 24 13 ENE 1029,4 18 60 0,0
23.02.2018 11:00:00 -3,8 -9,2 -2,6 -0,3 1,0 3,6 13 7 22 12 ENE 1029,6 20 60 0,0
23.02.2018 10:00:00 -4,1 -9,5 -3,3 -0,5 1,0 3,6 11 6 18 10 E 1029,3 18 60 0,0
23.02.2018 09:00:00 -4,9 -8,8 -4,9 -1,1 1,1 3,6 8 4 13 7 ESE 1029,0 12 60 0,0
23.02.2018 08:00:00 -6,2 -8,5 -7,5 -1,4 1,1 3,6 8 4 16 9 ESE 1028,6 11 3 0,0
23.02.2018 07:00:00 -6,2 -8,5 -7,5 -1,1 1,1 3,6 9 5 18 10 ESE 1028,2 10 0 0,0
23.02.2018 06:00:00 -5,8 -8,4 -7,1 -0,8 1,1 3,6 10 5 21 11 E 1027,9 11 0 0,0
23.02.2018 05:00:00 -5,1 -8,0 -6,5 -0,4 1,1 3,6 11 6 21 11 E 1027,7 12 0 0,0
23.02.2018 04:00:00 -4,3 -7,5 -5,8 -0,1 1,2 3,6 11 6 23 12 E 1027,5 13 0 0,0
23.02.2018 03:00:00 -3,4 -7,5 -3,6 0,0 1,2 3,6 12 6 21 11 E 1027,4 15 0 0,0
23.02.2018 02:00:00 -3,4 -6,3 -4,5 0,0 1,2 3,6 13 7 28 15 E 1027,3 13 0 0,0
23.02.2018 01:00:00 -2,9 -5,9 -4,0 0,1 1,2 3,6 18 10 28 15 ENE 1027,4 12 0 0,0
23.02.2018 00:00:00 -2,1 -6,0 -3,4 0,1 1,2 3,6 19 10 27 15 NE 1027,5 17 0 0,0
22.02.2018 23:00:00 -1,8 -5,2 -3,3 0,1 1,2 3,6 16 9 29 16 NE 1027,6 28 0 0,0
22.02.2018 22:00:00 -1,7 -4,4 -2,9 0,2 1,2 3,6 16 9 26 14 NE 1027,5 27 0 0,0
22.02.2018 21:00:00 -1,3 -4,0 -2,6 0,2 1,2 3,6 15 8 25 13 ENE 1027,2 27 0 0,0
22.02.2018 20:00:00 -0,8 -4,1 -2,0 0,2 1,2 3,6 19 10 27 15 ENE 1027,4 32 0 0,0
22.02.2018 19:00:00 -0,4 -2,9 -1,6 0,2 1,2 3,6 16 9 25 13 ENE 1027,0 27 0 0,0
22.02.2018 18:00:00 -0,1 -1,7 -0,4 0,2 1,2 3,6 13 7 19 11 ENE 1026,9 15 0 0,0
22.02.2018 17:00:00 0,0 -1,8 -0,3 0,2 1,3 3,6 10 6 17 9 E 1026,7 6 0 0,0
22.02.2018 16:00:00 0,2 -2,0 0,4 0,2 1,3 3,6 7 4 15 8 E 1026,5 15 0 0,0
22.02.2018 15:00:00 0,4 -1,6 1,1 0,2 1,3 3,6 9 5 16 8 SE 1026,6 7 0 0,0
22.02.2018 14:00:00 0,6 -1,0 1,4 0,2 1,3 3,6 9 5 16 9 E 1026,7 8 1 0,0
22.02.2018 13:00:00 0,7 -0,7 1,3 0,2 1,3 3,6 3 2 8 4 WSW 1027,0 8 0 0,0
22.02.2018 12:00:00 0,2 -0,6 1,1 0,2 1,3 3,6 5 3 9 5 WSW 1027,2 6 0 0,0
22.02.2018 11:00:00 -0,5 -1,0 -0,3 0,2 1,3 3,6 6 4 13 7 SW 1027,3 6 0 0,0
22.02.2018 10:00:00 -1,0 -1,5 -0,7 0,2 1,4 3,6 8 4 11 6 SW 1027,2 6 0 0,0
22.02.2018 09:00:00 -1,6 -1,9 -1,9 0,2 1,4 3,6 7 4 11 6 SW 1027,1 5 0 0,1
22.02.2018 08:00:00 -2,1 -2,2 -1,9 0,2 1,4 3,6 4 2 9 5 WSW 1027,1 3,8 0 0,0
22.02.2018 07:00:00 -2,8 -3,0 -3,0 0,2 1,4 3,6 5 3 9 5 SSW 1027,0 6 0 0,0
22.02.2018 06:00:00 -2,6 -2,8 -2,8 0,2 1,5 3,6 5 3 8 4 SW 1027,0 4,7 0 0,0
22.02.2018 05:00:00 -2,8 -3,0 -2,6 0,2 1,5 3,6 6 4 9 5 SSW 1027,1 6 0 0,0
22.02.2018 04:00:00 -2,9 -3,1 -3,3 0,2 1,5 3,6 3 2 8 5 S 1027,3 7 0 0,0
22.02.2018 03:00:00 -3,1 -3,3 -3,7 0,2 1,6 3,6 5 3 11 6 WSW 1027,4 4,8 0 0,0
22.02.2018 02:00:00 -3,4 -3,5 -3,6 0,3 1,6 3,6 3 2 6 4 SW 1027,7 5 0 0,0
22.02.2018 01:00:00 -3,8 -3,8 -6,1 0,3 1,6 3,6 4 2 7 4 SSW 1027,8 3,8 0 0,0
22.02.2018 00:00:00 -3,6 -3,7 -5,9 0,4 1,7 3,6 4 2 5 3 SSW 1027,8 4,5 0 0,0
21.02.2018 23:00:00 -1,9 -2,2 -5,3 0,4 1,8 3,6 3 2 8 4 N 1027,8 7 0 0,0
21.02.2018 22:00:00 -1,1 -2,0 -4,3 0,5 1,8 3,6 6 3 11 6 NE 1027,7 15 0 0,0
21.02.2018 21:00:00 -0,6 -1,8 -2,7 0,6 1,9 3,6 6 4 14 8 NE 1027,4 14 0 0,0
21.02.2018 20:00:00 -0,1 -1,6 -1,5 0,7 2,0 3,6 11 6 19 11 NNE 1027,3 15 0 0,0
21.02.2018 19:00:00 0,3 -1,1 -0,3 0,8 2,1 3,6 11 6 19 11 N 1027,0 15 0 0,0
21.02.2018 18:00:00 0,3 -1,2 -0,6 1,4 2,1 3,6 9 5 15 8 N 1026,5 15 0 0,0
21.02.2018 17:00:00 0,8 -0,7 0,4 2,4 2,0 3,6 11 6 16 8 NNE 1026,5 22 0 0,0
21.02.2018 16:00:00 1,1 0,0 1,5 2,9 1,8 3,6 8 4 17 9 NNE 1026,4 24 0 0,0
21.02.2018 15:00:00 1,8 -0,8 2,4 2,8 1,6 3,6 10 5 18 10 N 1026,4 35 0 0,0
21.02.2018 14:00:00 1,4 -1,3 2,2 2,2 1,4 3,6 7 4 13 7 WNW 1026,7 49 0 0,0
21.02.2018 13:00:00 1,5 -2,6 3,0 0,5 1,4 3,6 10 5 15 8 N 1027,1 16 29 0,0
21.02.2018 12:00:00 1,8 -2,1 2,7 0,2 1,4 3,6 6 3 9 5 NE 1027,1 20 0 0,0
21.02.2018 11:00:00 1,4 -2,1 1,9 0,2 1,5 3,6 7 4 9 5 NE 1026,9 15 40 0,0
21.02.2018 10:00:00 1,2 -2,5 0,8 0,2 1,5 3,6 6 4 9 5 NE 1026,9 13 60 0,0
21.02.2018 09:00:00 -0,1 -1,7 -1,0 0,2 1,5 3,6 2 1 6 4 N 1026,8 8 47 0,0
21.02.2018 08:00:00 -3,0 -3,2 -4,9 0,2 1,6 3,6 4 2 6 3 NNE 1026,3 6 0 0,0
21.02.2018 07:00:00 -3,0 -3,5 -6,1 0,2 1,6 3,6 0 0 9 5 N 1026,1 6 0 0,0
21.02.2018 06:00:00 -0,8 -2,1 -5,4 0,3 1,6 3,6 4 2 9 5 NE 1026,2 12 0 0,0
21.02.2018 05:00:00 -0,2 -1,3 -4,4 0,3 1,7 3,6 6 3 11 6 NE 1025,9 11 0 0,0
21.02.2018 04:00:00 0,0 -1,5 -4,7 0,3 1,7 3,6 5 3 13 7 NE 1025,7 12 0 0,0
21.02.2018 03:00:00 1,2 -3,8 0,1 0,4 1,8 3,6 9 5 16 9 NE 1025,8 29 0 0,0
21.02.2018 02:00:00 1,0 -2,5 -0,3 0,4 1,8 3,6 7 4 16 9 NE 1025,7 24 0 0,0
21.02.2018 01:00:00 0,6 -2,2 -0,5 0,4 1,9 3,6 6 4 13 7 NE 1025,9 13 0 0,0
21.02.2018 00:00:00 0,2 -2,4 -2,3 0,5 2,0 3,6 4 2 8 4 E 1025,6 11 0 0,0
20.02.2018 23:00:00 0,1 -2,3 -3,2 0,5 2,1 3,6 6 3 16 9 E 1025,1 11 0 0,0
20.02.2018 22:00:00 0,6 -2,6 -1,1 0,6 2,2 3,6 11 6 20 11 E 1025,0 13 0 0,0
20.02.2018 21:00:00 0,4 -2,6 -1,1 0,7 2,3 3,6 10 5 18 10 ENE 1024,6 13 0 0,0
20.02.2018 20:00:00 0,6 -2,0 -0,9 0,9 2,5 3,6 9 5 21 11 ENE 1024,2 11 0 0,0
20.02.2018 19:00:00 0,8 -1,9 -1,1 1,2 2,6 3,5 11 6 19 11 ENE 1023,7 12 0 0,0
20.02.2018 18:00:00 1,0 -1,8 -1,4 1,5 2,7 3,5 8 5 14 7 ENE 1023,3 15 1 0,0
20.02.2018 17:00:00 1,7 -2,2 0,6 3,2 2,6 3,5 8 5 18 10 ENE 1022,8 20 60 0,0
20.02.2018 16:00:00 2,5 -1,9 3,7 4,5 2,4 3,5 8 5 17 9 ENE 1022,5 18 60 0,0
20.02.2018 15:00:00 2,7 -1,8 4,2 4,9 2,1 3,5 9 5 26 14 NE 1022,6 16 60 0,0
20.02.2018 14:00:00 2,9 -3,5 4,4 4,7 1,8 3,5 16 8 26 14 ENE 1022,6 13 60 0,0
20.02.2018 13:00:00 3,2 -3,7 4,5 3,8 1,5 3,5 15 8 25 13 ENE 1022,7 12 60 0,0
20.02.2018 12:00:00 2,8 -4,7 3,5 1,3 1,4 3,5 16 8 24 13 ESE 1022,6 13 59 0,0
20.02.2018 11:00:00 2,0 -4,5 2,3 0,3 1,5 3,5 14 7 24 13 E 1022,7 15 60 0,0
20.02.2018 10:00:00 1,6 -3,9 1,4 0,3 1,5 3,5 13 7 25 13 ESE 1022,7 11 60 0,0
20.02.2018 09:00:00 0,9 -3,2 0,4 0,3 1,5 3,5 11 6 20 11 E 1022,6 9 47 0,0
20.02.2018 08:00:00 -0,2 -2,8 -0,9 0,3 1,6 3,5 9 5 15 8 E 1022,2 8 0 0,0
20.02.2018 07:00:00 -0,5 -2,9 -1,5 0,3 1,6 3,5 8 5 14 8 E 1022,0 8 0 0,0
20.02.2018 06:00:00 -0,1 -2,3 -1,3 0,3 1,6 3,5 10 5 18 10 E 1021,8 8 0 0,0
20.02.2018 05:00:00 0,0 -2,1 -0,7 0,4 1,7 3,5 9 5 16 8 E 1021,8 8 0 0,0
20.02.2018 04:00:00 -0,1 -2,7 -1,1 0,4 1,7 3,5 9 5 13 7 E 1021,8 8 0 0,0
20.02.2018 03:00:00 -0,4 -3,4 -1,5 0,4 1,8 3,5 7 4 12 7 E 1021,8 8 0 0,0
20.02.2018 02:00:00 -0,5 -3,3 -1,6 0,5 1,8 3,5 5 3 12 6 E 1021,6 8 0 0,0
20.02.2018 01:00:00 0,1 -3,4 -1,3 0,5 1,9 3,5 7 4 16 9 SE 1021,6 8 0 0,0
20.02.2018 00:00:00 0,4 -3,2 -0,6 0,5 2,0 3,5 8 4 15 8 SE 1021,6 8 0 0,0
19.02.2018 23:00:00 0,4 -3,2 -0,8 0,6 2,1 3,5 8 5 18 10 SE 1021,4 9 0 0,0
19.02.2018 22:00:00 0,6 -3,0 -0,4 0,7 2,2 3,5 9 5 15 8 ESE 1021,3 10 0 0,0
19.02.2018 21:00:00 0,6 -3,0 -0,6 0,7 2,4 3,5 9 5 15 8 SSE 1021,4 10 0 0,0
19.02.2018 20:00:00 0,9 -2,9 -1,2 0,6 2,6 3,5 9 5 15 8 SE 1021,4 12 0 0,0
19.02.2018 19:00:00 1,6 -2,7 -0,5 1,3 2,7 3,5 8 4 14 8 SE 1021,2 13 0 0,0
19.02.2018 18:00:00 2,1 -2,3 -0,4 2,3 2,8 3,5 9 5 17 9 SSE 1021,0 14 0 0,0
19.02.2018 17:00:00 3,4 -2,1 2,4 3,8 2,7 3,5 13 7 20 11 SSE 1021,0 18 28 0,0
19.02.2018 16:00:00 4,4 -1,9 5,8 4,7 2,5 3,4 13 7 21 12 S 1021,0 17 60 0,0
19.02.2018 15:00:00 4,3 -1,4 5,2 4,9 2,2 3,4 10 5 17 9 SSE 1021,2 19 24 0,0
19.02.2018 14:00:00 4,2 -2,1 5,6 5,2 1,9 3,4 12 7 21 11 SSE 1021,4 15 60 0,0
19.02.2018 13:00:00 3,9 -2,3 5,3 4,4 1,6 3,4 14 7 22 12 SSW 1021,7 14 58 0,0
19.02.2018 12:00:00 3,7 -1,9 5,2 3,3 1,3 3,4 13 7 21 12 S 1022,2 15 55 0,0
19.02.2018 11:00:00 2,8 -2,4 3,2 0,8 1,3 3,4 15 8 25 13 S 1022,4 17 57 0,0
19.02.2018 10:00:00 1,5 -2,8 1,1 0,3 1,3 3,4 18 10 25 14 S 1022,8 17 54 0,0
19.02.2018 09:00:00 0,1 -2,6 -0,4 0,3 1,3 3,4 11 6 18 10 S 1023,1 17 3 0,0
19.02.2018 08:00:00 -0,4 -2,7 -1,2 0,3 1,4 3,4 13 7 18 10 S 1023,2 16 0 0,0
19.02.2018 07:00:00 -0,3 -2,7 -1,3 0,3 1,4 3,4 12 7 17 9 SSE 1023,4 17 0 0,0
19.02.2018 06:00:00 -0,3 -2,7 -1,3 0,3 1,4 3,4 11 6 17 9 S 1023,5 19 0 0,0
19.02.2018 05:00:00 0,2 -2,5 -0,4 0,2 1,5 3,4 12 7 16 9 SSE 1023,9 23 0 0,0
19.02.2018 04:00:00 0,5 -2,6 -0,2 0,1 1,5 3,4 11 6 16 8 S 1024,3 27 0 0,0
19.02.2018 03:00:00 0,5 -2,8 -0,3 0,1 1,6 3,4 9 5 13 7 S 1025,0 31 0 0,0
19.02.2018 02:00:00 0,7 -2,8 -0,2 0,2 1,7 3,4 10 6 14 7 S 1025,4 43 0 0,0
19.02.2018 01:00:00 0,8 -2,6 0,0 0,3 1,8 3,4 9 5 13 7 S 1025,9 50 0 0,0
19.02.2018 00:00:00 0,9 -2,7 0,1 0,4 1,9 3,4 10 5 14 8 S 1026,3 58 0 0,0
18.02.2018 23:00:00 1,0 -2,8 0,2 0,6 2,0 3,4 9 5 16 9 S 1026,8 60 0 0,0
18.02.2018 22:00:00 1,3 -2,8 0,4 0,9 2,1 3,4 11 6 16 8 S 1027,0 59 0 0,0

tt = Température de l'air
td = dewpoint
tt 5cm = Température de l'air 5cm
tt -5cm = Température de l'air -5cm
tt -20cm = Température de l'air -20cm
tt -100cm = Température de l'air -100cm
ff = Vitesse du vent
fx = gusts
dd = Direction du vent
ppp = reduced air pressure
vv = visibility
sd = Ensoleillement
rr = Quantités de précipitations

stations d'obs. à proximité